Regional Weather Roundup
Issued by NWS Sioux Falls, SD

Home | Current Version | Previous Version | Graphics & Text | Print | Product List | Glossary Off
Versions: 1 2 3 4 5 6 7 8 9 10 11 12 13 14 15 16 17 18 19 20 21 22 23 24 25 26 27 28 29 30 31 32 33 34 35 36 37 38 39 40 41 42 43 44 45 46 47 48 49 50

000
ASUS43 KFSD 310602
RWRFSD

WEATHER ROUNDUP FOR SE SOUTH DAKOTA/SW MINNESOTA/NW IOWA
NATIONAL WEATHER SERVICE SIOUX FALLS SD
100 AM CDT FRI OCT 31 2014

NOTE: "FAIR" INDICATES FEW OR NO CLOUDS BELOW 12,000 FEET WITH NO
SIGNIFICANT WEATHER AND OR OBSTRUCTIONS TO VISIBILITY.


SDZ038>040-050-052>070-310700-
SOUTHEAST SOUTH DAKOTA

CITY           SKY/WX    TMP DP  RH WIND       PRES   REMARKS
CHAMBERLAIN    CLEAR     28  20  72 NE3       30.56S
6HR MIN TEMP:  28; 6HR MAX TEMP:  41;

HURON          CLEAR     19  16  88 NW8       30.56S WCI   9
6HR MIN TEMP:  18; 6HR MAX TEMP:  38;

MADISON        FAIR      27  21  80 N17G23    30.49R WCI  14
MITCHELL       CLEAR     26  20  77 NW8       30.56R WCI  18
6HR MIN TEMP:  26; 6HR MAX TEMP:  42;

SIOUX FALLS    CLEAR     27  20  75 N9        30.49R WCI  18
6HR MIN TEMP:  27; 6HR MAX TEMP:  40;

WINNER         CLOUDY    34  25  69 NE16      30.54R WCI  24
YANKTON        MOCLDY    34  21  60 N16G24    30.53R WCI  23
$$

MNZ071-072-080-081-089-090-097-098-310700-
SOUTHWEST MINNESOTA

CITY           SKY/WX    TMP DP  RH WIND       PRES   REMARKS
FAIRMONT       CLEAR     30  16  55 N20G25    30.39R WCI  18
JACKSON        CLEAR     32  19  59 N12G20    30.41R WCI  23
LUVERNE        CLEAR     32  21  64 N12G18    30.47R WCI  23
MARSHALL       CLEAR     27  18  69 N16       30.47R WCI  14
6HR MIN TEMP:  27; 6HR MAX TEMP:  37;

MONTEVIDEO     CLEAR     28  23  80 N13       30.50R WCI  18
PIPESTONE      CLEAR     28  19  69 N10G16    30.45R WCI  19
REDWOOD FALLS  CLEAR     29  22  75 NW10      30.46R WCI  20
TRACY          CLEAR     29  23  78 N14       30.46R WCI  18
WINDOM         CLEAR     28  21  74 NW15      30.42R WCI  17
WORTHINGTON    CLEAR     28  19  69 N13       30.44R WCI  18
$$

IAZ001>003-012>014-020>022-031-032-NEZ013-014-SDZ071-310700-
NORTHWEST IOWA

CITY           SKY/WX    TMP DP  RH WIND       PRES   REMARKS
CHEROKEE       CLOUDY    34  23  63 N17G24    30.43R WCI  23
DENISON        CLOUDY    36  25  64 N18G28    30.39R
ESTHERVILLE    CLEAR     30  18  60 N18       30.39R WCI  18
LE MARS        MOCLDY    32  21  64 N18       30.46S WCI  20
ORANGE CITY    PTCLDY    32  21  64 N10       30.45R WCI  24
SHELDON        CLEAR     30  21  69 N13       30.44R WCI  20
SIOUX CITY     CLOUDY    36  23  59 N13       30.47R
6HR MIN TEMP:  36; 6HR MAX TEMP:  50;

SPENCER        CLEAR     32  18  56 N17G28    30.41R WCI  21
6HR MIN TEMP:  32; 6HR MAX TEMP:  45;

STORM LAKE     CLOUDY    34  23  64 N22G32    30.40R WCI  22
$$

ABBREVIATIONS USED IN REMARKS
   TC - TEMPERATURE IN CELSIUS
  WCI - WIND CHILL INDEX
   HX - HEAT INDEX
  VSB - VISIBILITY




USA.gov is the U.S. government's official web portal to all federal, state and local government web resources and services.